sat.trackr.live / text

‹ back to catalog

STARLINK-34426

NORAD 64345 · 2025-126B

PAYLOAD ACTIVE UNKNOWN

§ Identity

Operator
Country
US
Launch date
2025-06-13
Launch site
AFWTR
Launch vehicle
Mass (kg)
RCS (m²)

Purposes: comms

External: N2YO · Heavens-Above · Gunter

§ Orbital elements

Epoch: 2026-05-24T20:37:00.670656Z

Period
96.11 min
Inclination
70.0004°
Eccentricity
0.0003743
Mean motion
14.98347730 rev/d
Perigee alt
569.4 km
Apogee alt
574.6 km
Semi-major
6,950.1 km
B*
2.6783e-4
RAAN
202.3113°
Arg perigee
261.1324°
Mean anomaly
98.9411°
Rev number
5,209

§ Raw data

STARLINK-344261 64345U 25126B   26144.85903554  .00003106  00000+0  26783-3 0  99922 64345  70.0004 202.3113 0003743 261.1324  98.9411 14.98347730 52097

JSON: /api/v1/satellites/64345 · /tle

For live sub-satellite position, see the globe view (requires WebGL).

§ Visibility from observer

Set your observer location to see the next 7 days of passes ≥ 10°. The values pass through the URL so the page stays shareable.

No JS? Fill the form by hand. The geolocation button needs JavaScript.